Change the Weather History Date:

Tuesday, March 4, 2014

  Actual Average Record
Temperature  
Mean Temperature 21 °F 39 °F  
Max Temperature 29 °F 46 °F 70 °F (1974)
Min Temperature 13 °F 32 °F 7 °F (1943)
Degree Days  
Heating Degree Days 44 26  
Month to date heating degree days 149 106  
Since 1 July heating degree days 3819 3628  
Cooling Degree Days 0 0  
Month to date cooling degree days 0 0  
Year to date cooling degree days 0 0  
Moisture  
Dew Point 1 °F    
Average Humidity 44    
Maximum Humidity 58    
Minimum Humidity 29    
Precipitation  
Precipitation 0.00 in 0.13 in 1.65 in (1977)
Month to date precipitation 0.04 0.50  
Year to date precipitation 8.31 7.24  
Snow  
Snow 0.00 in 0.20 in 6.00 in (1917)
Month to date snowfall 0.1 0.8  
Since 1 July snowfall 57.4 22.1  
Snow Depth 5.00 in    
Sea Level Pressure  
Sea Level Pressure 30.33 in    
Wind  
Wind Speed 5 mph (NW)    
Max Wind Speed 13 mph    
Max Gust Speed 19 mph    
Visibility 10 miles    
Events      
T = Trace of Precipitation, MM = Missing Value Source: NWS Daily Summary

Daily Weather History Graph

Daily Weather History Graph

Search for Another Location

Airport or City:

Trip Planner

Search our weather history database for the weather conditions in past years. The results will help you decide how hot, cold, wet, or windy it might be!

Date:

Astronomy

Mar. 04, 2014 Rise Set
Actual Time 6:25 AM EST 5:50 PM EST
Civil Twilight 5:57 AM EST 6:17 PM EST
Nautical Twilight 5:26 AM EST 6:49 PM EST
Astronomical Twilight 4:54 AM EST 7:21 PM EST
Moon 8:08 AM EST (3/4) 9:56 PM EST (3/4)
Length of Visible Light 12h 20m
Length of Day
11h 25m
Waxing Crescent, 14% of the Moon is Illuminated
Mar 4
Waxing Crescent
Mar 8
First Quarter
Mar 16
Full
Mar 23
Last Quarter
Mar 30
New

Hourly Weather History & Observations

Time (EST) Temp. Windchill Dew Point Humidity Pressure Visibility Wind Dir Wind Speed Gust Speed Precip Events Conditions
12:51 AM 16.0 °F 10.4 °F -2.9 °F 43% 30.33 in 10.0 mi Variable 3.5 mph - N/A   Clear
1:51 AM 16.0 °F 5.3 °F -4.0 °F 41% 30.34 in 10.0 mi North 8.1 mph - N/A   Clear
2:51 AM 14.0 °F 5.1 °F -2.9 °F 47% 30.35 in 10.0 mi Variable 5.8 mph - N/A   Clear
3:51 AM 14.0 °F 2.9 °F -4.0 °F 45% 30.34 in 10.0 mi NNW 8.1 mph - N/A   Clear
4:51 AM 12.9 °F 2.6 °F -4.0 °F 47% 30.36 in 10.0 mi Variable 6.9 mph - N/A   Clear
5:51 AM 12.9 °F 0.7 °F -2.0 °F 51% 30.37 in 10.0 mi North 9.2 mph - N/A   Clear
6:51 AM 12.9 °F 5.2 °F -0.0 °F 56% 30.38 in 10.0 mi NNE 4.6 mph - N/A   Clear
7:51 AM 14.0 °F 5.1 °F 1.0 °F 56% 30.41 in 10.0 mi Variable 5.8 mph - N/A   Clear
8:51 AM 17.1 °F 10.0 °F 1.9 °F 52% 30.43 in 10.0 mi Variable 4.6 mph - N/A   Clear
9:51 AM 18.0 °F 8.7 °F 1.0 °F 48% 30.43 in 10.0 mi Variable 6.9 mph - N/A   Clear
10:51 AM 21.0 °F - 1.9 °F 44% 30.40 in 10.0 mi Calm Calm - N/A   Clear
11:51 AM 23.0 °F 18.4 °F 3.0 °F 42% 30.37 in 10.0 mi NNE 3.5 mph - N/A   Clear
12:51 PM 24.1 °F - 3.9 °F 42% 30.34 in 10.0 mi Calm Calm - N/A   Clear
1:51 PM 28.0 °F - 6.1 °F 39% 30.31 in 10.0 mi North - - N/A   Clear
2:51 PM 27.0 °F 20.5 °F -2.0 °F 29% 30.30 in 10.0 mi WNW 5.8 mph - N/A   Clear
3:51 PM 28.0 °F - -0.0 °F 30% 30.29 in 10.0 mi Calm Calm - N/A   Scattered Clouds
4:51 PM 28.0 °F 24.2 °F 1.0 °F 31% 30.27 in 10.0 mi WNW 3.5 mph - N/A   Clear
5:51 PM 28.0 °F 24.2 °F 1.9 °F 33% 30.27 in 10.0 mi West 3.5 mph - N/A   Clear
6:51 PM 28.0 °F 19.3 °F 3.0 °F 34% 30.28 in 10.0 mi West 9.2 mph - N/A   Clear
7:51 PM 28.0 °F 19.3 °F 3.0 °F 34% 30.28 in 10.0 mi WSW 9.2 mph - N/A   Partly Cloudy
8:51 PM 28.9 °F - 8.1 °F 41% 30.28 in 10.0 mi Calm Calm - N/A   Mostly Cloudy
9:51 PM 28.9 °F - 9.0 °F 43% 30.27 in 10.0 mi Calm Calm - N/A   Mostly Cloudy
10:51 PM 28.0 °F 21.7 °F 3.9 °F 36% 30.26 in 10.0 mi WSW 5.8 mph - N/A   Partly Cloudy
11:51 PM 28.9 °F 25.2 °F 1.9 °F 32% 30.26 in 10.0 mi WNW 3.5 mph - N/A   Overcast